Location: ????????
(60.4333°N, 46.4710°E)
Time: 04:46:10
(UTC+00:00)

Cosmos 389 Rocket - Pass Details

Date: 25 November 2020
Orbit: 442 x 473 km, 81.1° (Epoch: 19 January)

Event Time Altitude Azimuth Distance (km) Brightness Sun altitude
Rises 14:40:55 0° 183° (S) 2,440 6.3 -18.0°
Reaches altitude 10° 14:43:00 10° 178° (S) 1,571 5.2 -18.3°
Enters shadow 14:45:55 49° 131° (SE) 586 2.6 -18.6°
